Stündliche Wetter Warmiaki

Heute, 22 Oktober, Donnerstag

Zeit Temperatur Niederschläge Wind Luftdruck Luftfeuchtigkeit
00:00 +10°C° 0 mm 4 m/S 750 mmHg 75%
01:00 +10°C° 0 mm 4 m/S 750 mmHg 77%
02:00 +10°C° 0 mm 4 m/S 750 mmHg 78%
03:00 +9°C° 0 mm 5 m/S 749 mmHg 78%
04:00 +9°C° 0 mm 5 m/S 749 mmHg 79%
05:00 +9°C° 0 mm 5 m/S 749 mmHg 77%
06:00 +10°C° 0 mm 5 m/S 750 mmHg 75%
07:00 +10°C° 0 mm 5 m/S 750 mmHg 74%
08:00 +13°C° 0 mm 6 m/S 750 mmHg 68%
09:00 +15°C° 0 mm 6 m/S 751 mmHg 62%
10:00 +17°C° 0 mm 7 m/S 751 mmHg 56%
11:00 +17°C° 0 mm 7 m/S 751 mmHg 56%
12:00 +19°C° 0 mm 6 m/S 751 mmHg 56%
13:00 +19°C° 0 mm 6 m/S 751 mmHg 56%
14:00 +19°C° 0 mm 5 m/S 751 mmHg 61%
15:00 +18°C° 0 mm 4 m/S 751 mmHg 66%
16:00 +17°C° 0 mm 3 m/S 751 mmHg 71%
17:00 +16°C° 0 mm 3 m/S 751 mmHg 74%
18:00 +14°C° 0 mm 3 m/S 751 mmHg 77%
19:00 +13°C° 0 mm 3 m/S 751 mmHg 80%
20:00 +13°C° 0 mm 3 m/S 751 mmHg 81%
21:00 +13°C° 0 mm 3 m/S 751 mmHg 81%
22:00 +13°C° 0 mm 3 m/S 751 mmHg 82%
23:00 +12°C° 0 mm 3 m/S 751 mmHg 82%

Morgen, 23 Oktober, Freitag

Zeit Temperatur Niederschläge Wind Luftdruck Luftfeuchtigkeit
00:00 +12°C° 0 mm 3 m/S 751 mmHg 83%
01:00 +12°C° 0 mm 3 m/S 751 mmHg 84%
02:00 +12°C° 0 mm 3 m/S 751 mmHg 83%
03:00 +12°C° 0 mm 4 m/S 751 mmHg 82%
04:00 +12°C° 0 mm 4 m/S 750 mmHg 82%
05:00 +12°C° 0 mm 4 m/S 750 mmHg 81%
06:00 +12°C° 0 mm 4 m/S 750 mmHg 81%
07:00 +12°C° 0 mm 4 m/S 750 mmHg 81%
08:00 +13°C° 0 mm 4 m/S 750 mmHg 78%
09:00 +14°C° 0 mm 5 m/S 750 mmHg 75%
10:00 +15°C° 0 mm 5 m/S 750 mmHg 72%
11:00 +16°C° 0 mm 5 m/S 749 mmHg 72%
12:00 +16°C° 0 mm 5 m/S 749 mmHg 71%
13:00 +18°C° 0 mm 4 m/S 749 mmHg 70%
14:00 +17°C° 0 mm 4 m/S 749 mmHg 73%
15:00 +17°C° 0 mm 3 m/S 749 mmHg 76%
16:00 +16°C° 0 mm 2 m/S 749 mmHg 79%
17:00 +16°C° 0 mm 2 m/S 749 mmHg 81%
18:00 +15°C° 0 mm 2 m/S 749 mmHg 84%
19:00 +14°C° 0 mm 2 m/S 749 mmHg 86%
20:00 +14°C° 0.1 mm 1 m/S 749 mmHg 87%
21:00 +14°C° 0.1 mm 1 m/S 749 mmHg 88%
22:00 +14°C° 0.1 mm 1 m/S 749 mmHg 89%
23:00 +14°C° 0.5 mm 1 m/S 749 mmHg 91%

übermorgen, 24 Oktober, Samstag

Zeit Temperatur Niederschläge Wind Luftdruck Luftfeuchtigkeit
00:00 +14°C° 0.5 mm 1 m/S 749 mmHg 93%
01:00 +14°C° 0.5 mm 1 m/S 749 mmHg 95%
02:00 +14°C° 1.4 mm 1 m/S 749 mmHg 95%
03:00 +14°C° 1.4 mm 2 m/S 748 mmHg 95%
04:00 +14°C° 1.4 mm 2 m/S 748 mmHg 95%
05:00 +13°C° 1.5 mm 2 m/S 748 mmHg 95%
06:00 +13°C° 1.5 mm 2 m/S 748 mmHg 95%
07:00 +12°C° 1.5 mm 3 m/S 748 mmHg 95%
08:00 +13°C° 1.7 mm 2 m/S 748 mmHg 95%
09:00 +13°C° 1.7 mm 2 m/S 748 mmHg 95%
10:00 +13°C° 1.7 mm 2 m/S 748 mmHg 95%
11:00 +14°C° 0.1 mm 2 m/S 749 mmHg 91%
12:00 +14°C° 0.1 mm 2 m/S 749 mmHg 87%
13:00 +15°C° 0.1 mm 2 m/S 749 mmHg 83%
14:00 +15°C° 0 mm 2 m/S 749 mmHg 84%
15:00 +13°C° 0 mm 3 m/S 750 mmHg 86%
16:00 +13°C° 0 mm 3 m/S 750 mmHg 87%
17:00 +12°C° 0 mm 3 m/S 751 mmHg 88%
18:00 +12°C° 0 mm 3 m/S 751 mmHg 88%
19:00 +11°C° 0 mm 3 m/S 752 mmHg 89%
20:00 +11°C° 0 mm 3 m/S 752 mmHg 91%
21:00 +10°C° 0 mm 3 m/S 753 mmHg 92%
22:00 +10°C° 0 mm 2 m/S 753 mmHg 93%
23:00 +9°C° 0 mm 2 m/S 753 mmHg 93%

, 25 Oktober, Sonntag

Zeit Temperatur Niederschläge Wind Luftdruck Luftfeuchtigkeit
00:00 +9°C° 0 mm 2 m/S 753 mmHg 92%
01:00 +8°C° 0 mm 2 m/S 753 mmHg 92%
02:00 +8°C° 0 mm 2 m/S 753 mmHg 92%
03:00 +8°C° 0 mm 2 m/S 753 mmHg 92%
04:00 +8°C° 0 mm 2 m/S 753 mmHg 92%
05:00 +8°C° 0 mm 2 m/S 754 mmHg 91%
06:00 +9°C° 0 mm 3 m/S 754 mmHg 90%
07:00 +9°C° 0 mm 3 m/S 754 mmHg 89%
08:00 +10°C° 0 mm 3 m/S 754 mmHg 85%
09:00 +11°C° 0 mm 3 m/S 754 mmHg 81%
10:00 +12°C° 0 mm 3 m/S 754 mmHg 77%
11:00 +13°C° 0 mm 3 m/S 754 mmHg 74%
12:00 +14°C° 0 mm 3 m/S 754 mmHg 71%
13:00 +16°C° 0 mm 3 m/S 754 mmHg 68%
14:00 +14°C° 0 mm 3 m/S 753 mmHg 71%
15:00 +14°C° 0 mm 2 m/S 753 mmHg 74%
16:00 +13°C° 0 mm 2 m/S 753 mmHg 78%
17:00 +12°C° 0 mm 3 m/S 753 mmHg 79%
18:00 +11°C° 0 mm 3 m/S 753 mmHg 81%
19:00 +10°C° 0 mm 3 m/S 753 mmHg 83%
20:00 +10°C° 0 mm 3 m/S 753 mmHg 84%
21:00 +10°C° 0 mm 3 m/S 753 mmHg 85%
22:00 +9°C° 0 mm 3 m/S 753 mmHg 86%
23:00 +9°C° 0 mm 3 m/S 753 mmHg 87%

25 Oktober, Sonntag

Zeit Temperatur Niederschläge Wind Luftdruck Luftfeuchtigkeit
00:00 +9°C° 0 mm 2 m/S 753 mmHg 92%
01:00 +8°C° 0 mm 2 m/S 753 mmHg 92%
02:00 +8°C° 0 mm 2 m/S 753 mmHg 92%
03:00 +8°C° 0 mm 2 m/S 753 mmHg 92%
04:00 +8°C° 0 mm 2 m/S 753 mmHg 92%
05:00 +8°C° 0 mm 2 m/S 754 mmHg 91%
06:00 +9°C° 0 mm 3 m/S 754 mmHg 90%
07:00 +9°C° 0 mm 3 m/S 754 mmHg 89%
08:00 +10°C° 0 mm 3 m/S 754 mmHg 85%
09:00 +11°C° 0 mm 3 m/S 754 mmHg 81%
10:00 +12°C° 0 mm 3 m/S 754 mmHg 77%
11:00 +13°C° 0 mm 3 m/S 754 mmHg 74%
12:00 +14°C° 0 mm 3 m/S 754 mmHg 71%
13:00 +16°C° 0 mm 3 m/S 754 mmHg 68%
14:00 +14°C° 0 mm 3 m/S 753 mmHg 71%
15:00 +14°C° 0 mm 2 m/S 753 mmHg 74%
16:00 +13°C° 0 mm 2 m/S 753 mmHg 78%
17:00 +12°C° 0 mm 3 m/S 753 mmHg 79%
18:00 +11°C° 0 mm 3 m/S 753 mmHg 81%
19:00 +10°C° 0 mm 3 m/S 753 mmHg 83%
20:00 +10°C° 0 mm 3 m/S 753 mmHg 84%
21:00 +10°C° 0 mm 3 m/S 753 mmHg 85%
22:00 +9°C° 0 mm 3 m/S 753 mmHg 86%
23:00 +9°C° 0 mm 3 m/S 753 mmHg 87%

26 Oktober, Montag

Zeit Temperatur Niederschläge Wind Luftdruck Luftfeuchtigkeit
00:00 +9°C° 0 mm 3 m/S 753 mmHg 89%
01:00 +8°C° 0 mm 3 m/S 753 mmHg 90%
02:00 +8°C° 0 mm 3 m/S 752 mmHg 91%
03:00 +7°C° 0 mm 4 m/S 752 mmHg 92%
04:00 +7°C° 0 mm 4 m/S 752 mmHg 93%
05:00 +7°C° 0 mm 4 m/S 752 mmHg 92%
06:00 +7°C° 0 mm 5 m/S 751 mmHg 92%
07:00 +7°C° 0 mm 5 m/S 751 mmHg 92%
08:00 +9°C° 0 mm 5 m/S 751 mmHg 87%
09:00 +10°C° 0 mm 6 m/S 751 mmHg 81%
10:00 +11°C° 0 mm 6 m/S 750 mmHg 76%
11:00 +13°C° 0 mm 6 m/S 750 mmHg 73%
12:00 +14°C° 0 mm 6 m/S 750 mmHg 70%
13:00 +14°C° 0 mm 7 m/S 749 mmHg 67%
14:00 +14°C° 0 mm 6 m/S 749 mmHg 71%
15:00 +13°C° 0 mm 6 m/S 749 mmHg 75%
16:00 +13°C° 0 mm 5 m/S 748 mmHg 79%
17:00 +12°C° 0 mm 5 m/S 748 mmHg 80%
18:00 +12°C° 0 mm 5 m/S 748 mmHg 80%
19:00 +11°C° 0 mm 6 m/S 748 mmHg 81%
20:00 +12°C° 0 mm 5 m/S 748 mmHg 83%
21:00 +12°C° 0 mm 5 m/S 748 mmHg 85%
22:00 +10°C° 0 mm 5 m/S 748 mmHg 87%
23:00 +10°C° 0 mm 5 m/S 748 mmHg 89%

27 Oktober, Dienstag

Zeit Temperatur Niederschläge Wind Luftdruck Luftfeuchtigkeit
00:00 +10°C° 0 mm 5 m/S 748 mmHg 90%
01:00 +9°C° 0 mm 5 m/S 748 mmHg 92%
02:00 +10°C° 0 mm 4 m/S 748 mmHg 92%
03:00 +10°C° 0 mm 4 m/S 748 mmHg 92%
04:00 +10°C° 0 mm 4 m/S 748 mmHg 93%
05:00 +10°C° 0 mm 4 m/S 748 mmHg 92%
06:00 +10°C° 0 mm 4 m/S 748 mmHg 92%
07:00 +10°C° 0 mm 4 m/S 748 mmHg 91%
08:00 +11°C° 0 mm 4 m/S 748 mmHg 86%
09:00 +13°C° 0 mm 4 m/S 749 mmHg 81%
10:00 +14°C° 0 mm 5 m/S 749 mmHg 76%
11:00 +15°C° 0 mm 5 m/S 749 mmHg 73%
12:00 +16°C° 0 mm 5 m/S 749 mmHg 70%
13:00 +18°C° 0 mm 4 m/S 749 mmHg 68%
14:00 +17°C° 0 mm 4 m/S 749 mmHg 72%
15:00 +15°C° 0 mm 4 m/S 749 mmHg 76%
16:00 +14°C° 0 mm 3 m/S 749 mmHg 80%
17:00 +13°C° 0 mm 3 m/S 749 mmHg 82%
18:00 +13°C° 0 mm 3 m/S 749 mmHg 85%
19:00 +12°C° 0 mm 3 m/S 750 mmHg 87%
20:00 +12°C° 0 mm 3 m/S 750 mmHg 88%
21:00 +12°C° 0 mm 3 m/S 750 mmHg 89%
22:00 +11°C° 0 mm 3 m/S 750 mmHg 89%
23:00 +12°C° 0 mm 2 m/S 751 mmHg 89%
Mehr zeigen

Wir brauchen deine Erlaubnis

Meteoprog und unser Service Anbieter werden persönliche Daten aufbewahren, so wie Cookies, Geräte Bezeichnung oder ähnliche Technologien von deinem Gerät und Prozess, so wie Persönliche Daten Inhalte und Werbungen, genauso wie social Media und den Verkehr zu analysieren.

  • Aufbewahrung und/oder Zugang zu deiner Geräte Informationen.

    Cookies, Geräte Bezeichnung oder andere Informationen, können aufbewahrt oder Zugang zu deinem Gerät erhalten, für den Grund, der oben angegeben wird.

  • Personalisierte Werbung und Inhalte, Messungen, Einblick in das Publikum und Produkt Entwicklung.

    Werbungen und Inhalte können personalisiert werden, basierend auf ein Profil. Mehr Daten können besser personalisierte Werbungen und Inhalte hinzufügen. Werbung und Inhalte können gezeigt und gemessen werden. Einblicke über das Publikum, welche die Werbung gesehen haben und den Inhalt, können abgeleitet werden. So wie Daten können genutzt werden, um es zu verbessern oder die Benutzer Erfahrung zu verbessern das System und die Software.

Wenn du “Ich stimme zu” klickst, erlaubst du uns, die Cookies zu benutzen die Geräte Bezeichnung, den Web oder ähnliche Technologien zu benutzen. Deine Settings, können in deinem Gerät bei deinem Browser geändert werden.

Für den bestimmten Zweck, berechtigten Interessen beruhen darauf, mehr als auf den Inhalt. Du kannst mehr darüber in unseren Privaten und Cookie Politik lesen.